Total_Precipitation_Accumulation
1.09 1.10 1.09 0.99 0.97 0.98 1.05 1.25 1.50 1.28 0.77 0.56 0.58 0.64 0.72 0.81 1.01 0.94 0.89 0.94 0.97 1.01 1.10 1.13 1.15 1.27 1.58 2.18 3.14 4.51 5.17 4.48 3.55 3.23 3.23 3.47 3.81 4.26
1.02 1.07 1.08 1.02 0.98 0.96 1.04 1.09 1.22 1.39 1.11 0.63 0.57 0.61 0.74 0.78 0.87 0.82 0.85 0.99 0.99 0.99 1.04 1.08 1.13 1.18 1.33 1.61 2.12 2.96 4.18 4.86 4.47 3.81 3.46 3.58 3.79 4.05
0.97 1.00 1.00 1.00 1.04 0.99 1.01 1.04 1.05 1.12 1.11 0.67 0.53 0.57 0.74 0.82 0.79 0.75 0.81 0.86 0.89 0.99 1.00 1.01 1.07 1.15 1.31 1.48 1.75 2.19 2.89 3.87 4.54 4.41 4.00 3.78 3.71 3.74
0.94 0.92 0.92 0.93 0.99 0.95 0.95 0.95 0.92 0.89 0.94 0.77 0.54 0.53 0.62 0.71 0.82 0.88 0.85 0.84 0.83 0.92 0.95 1.03 1.13 1.16 1.24 1.39 1.61 1.91 2.29 2.84 3.55 4.09 4.15 3.92 3.69 3.66
0.94 0.95 0.91 0.94 0.97 0.92 0.93 0.90 0.82 0.77 0.79 0.81 0.64 0.55 0.59 0.64 0.82 0.96 0.95 0.94 0.90 0.92 0.96 1.03 1.12 1.19 1.24 1.31 1.49 1.71 1.92 2.14 2.55 3.30 3.85 3.81 3.67 3.56
0.88 0.87 0.90 1.00 1.01 1.00 1.02 0.92 0.86 0.88 0.90 0.95 0.81 0.68 0.70 0.73 0.90 1.12 1.20 1.14 1.09 0.98 1.01 1.05 1.16 1.26 1.26 1.24 1.27 1.34 1.49 1.81 2.17 2.60 3.22 3.60 3.50 3.45
0.85 0.84 0.90 1.03 1.08 1.22 1.31 1.18 1.15 1.24 1.21 1.22 1.13 1.02 0.96 0.99 1.08 1.12 1.27 1.29 1.28 1.15 1.06 1.00 1.04 1.06 1.12 1.18 1.22 1.23 1.30 1.46 1.77 2.15 2.57 3.05 3.35 3.42
0.89 0.84 0.84 0.96 0.99 1.09 1.24 1.31 1.37 1.49 1.54 1.54 1.48 1.36 1.13 1.04 1.09 1.23 1.31 1.48 1.53 1.25 1.18 1.12 1.08 1.15 1.11 1.10 1.24 1.24 1.27 1.37 1.55 1.85 2.18 2.49 2.89 3.29
0.87 0.85 0.85 0.90 0.96 0.95 1.04 1.07 1.09 1.24 1.46 1.58 1.64 1.31 1.13 1.08 1.29 1.49 1.46 1.53 1.49 1.39 1.49 1.44 1.17 1.18 1.12 1.22 1.38 1.29 1.25 1.28 1.38 1.58 1.85 2.12 2.40 2.76
0.83 0.83 0.82 0.84 0.94 1.13 1.11 1.05 0.94 0.96 1.17 1.37 1.61 1.45 1.30 1.34 1.65 1.97 2.06 1.94 1.56 1.36 1.51 1.69 1.29 1.18 1.20 1.29 1.43 1.34 1.22 1.18 1.23 1.39 1.61 1.82 2.05 2.33
0.82 0.82 0.83 0.81 1.02 1.28 1.23 1.08 0.90 0.82 0.93 1.25 1.55 1.68 1.71 1.83 2.06 2.38 2.55 2.38 1.94 1.43 1.40 1.64 1.49 1.32 1.42 1.57 1.62 1.49 1.24 1.18 1.19 1.27 1.38 1.51 1.73 2.03
0.87 0.83 0.93 1.02 1.17 1.30 1.18 1.14 1.21 1.00 0.88 0.93 1.01 1.14 1.24 1.39 1.75 2.04 2.33 2.41 2.09 1.88 1.54 1.62 1.73 1.72 1.94 1.81 1.68 1.45 1.24 1.20 1.20 1.21 1.22 1.30 1.46 1.52
0.92 0.88 0.85 1.07 1.15 1.22 1.26 1.20 1.41 1.32 1.10 1.10 1.05 1.00 1.00 1.13 1.34 1.64 2.02 2.32 2.33 2.05 1.68 1.91 2.18 1.99 2.05 1.89 1.75 1.66 1.32 1.12 1.10 1.18 1.22 1.26 1.34 1.35
0.88 0.77 0.80 1.02 1.10 1.19 1.18 1.24 1.35 1.32 1.15 1.08 0.99 0.93 0.96 1.04 1.15 1.33 1.65 1.90 1.99 1.86 1.60 1.91 2.45 2.23 2.08 1.80 1.70 1.78 1.57 1.29 1.13 1.10 1.11 1.32 1.35 1.32
0.88 0.95 1.01 1.11 1.11 1.03 1.07 1.16 1.15 1.09 1.17 1.16 1.00 0.91 0.95 1.08 1.16 1.21 1.35 1.62 1.78 1.74 1.67 1.74 2.12 2.22 2.21 1.98 1.63 1.64 1.72 1.60 1.33 1.23 1.16 1.14 1.09 1.06
1.03 1.06 1.13 1.12 1.02 0.92 0.94 0.96 0.92 0.99 1.14 1.15 1.02 0.91 0.89 0.99 1.13 1.23 1.34 1.49 1.70 1.73 1.71 1.76 2.01 2.37 2.33 1.89 1.68 1.60 1.54 1.70 1.58 1.38 1.23 1.13 1.03 0.90
1.23 1.29 1.21 1.11 1.05 0.92 0.82 0.75 0.79 0.93 1.05 0.99 0.99 0.97 0.93 0.95 1.02 1.12 1.33 1.48 1.63 1.67 1.75 1.89 2.05 2.24 2.33 2.25 2.06 1.67 1.45 1.41 1.46 1.42 1.34 1.31 1.23 1.05
1.39 1.31 1.10 0.95 0.91 0.86 0.82 0.78 0.74 0.78 0.84 0.91 0.97 0.98 0.98 1.00 1.02 1.03 1.18 1.42 1.57 1.59 1.66 1.80 1.98 2.19 2.37 2.47 2.28 1.86 1.54 1.39 1.45 1.50 1.42 1.44 1.47 1.29
1.25 1.04 0.88 0.82 0.80 0.79 0.78 0.75 0.72 0.67 0.72 0.81 0.87 0.91 0.96 1.00 1.02 1.04 1.10 1.24 1.42 1.54 1.63 1.72 1.87 2.07 2.24 2.37 2.44 2.09 1.77 1.51 1.48 1.66 1.65 1.53 1.51 1.40
1.03 0.93 0.85 0.78 0.76 0.79 0.80 0.79 0.75 0.71 0.74 0.77 0.79 0.81 0.89 0.99 1.01 1.00 1.03 1.16 1.30 1.42 1.52 1.60 1.79 2.01 2.20 2.16 2.25 2.25 2.13 1.80 1.59 1.71 1.79 1.69 1.60 1.56
0.92 0.90 0.86 0.84 0.83 0.83 0.85 0.85 0.83 0.80 0.76 0.77 0.77 0.77 0.79 0.88 0.91 0.88 0.91 1.04 1.20 1.31 1.40 1.40 1.53 1.77 2.00 2.05 2.00 1.96 2.12 2.14 1.81 1.76 1.83 1.89 1.85 1.78
0.84 0.89 0.89 0.89 0.90 0.91 0.91 0.91 0.89 0.83 0.78 0.78 0.75 0.74 0.75 0.79 0.82 0.83 0.88 0.95 1.01 1.11 1.25 1.31 1.41 1.66 1.96 2.15 2.07 1.91 1.97 2.12 2.14 1.96 1.87 1.93 2.10 2.14
0.95 0.95 0.94 0.94 0.94 0.96 0.96 0.93 0.88 0.81 0.75 0.74 0.74 0.73 0.74 0.78 0.77 0.81 0.84 0.88 0.95 1.01 1.11 1.27 1.41 1.57 1.80 2.00 2.10 2.01 1.89 1.92 2.00 2.04 2.16 1.98 1.64 1.47